When you browse on this site, cookies collect data to enhance your experience and personalize the content and advertising you see.
Visit our Privacy Policy to learn more. By continuing to use the site, you agree to this use of cookies and data.
  • En España
  • Lista de países
  • Para 7 días
  • Temperatura del agua
  • Mapa Satelital
  • El tiempo en el mapa
  • Informadores
  • user-avatar
    Iniciar sesión

    Tiempo cada hora Corozal

    Hoy, 21 Noviembre, Miércoles

    Tiempo Temperatura Precipitaciones Viento Presión Humedad
    00:00 +25°C° 0 mm 2 mps 762 mmHg 99%
    01:00 +24°C° 0 mm 2 mps 762 mmHg 99%
    02:00 +24°C° 0 mm 2 mps 761 mmHg 99%
    03:00 +24°C° 0 mm 2 mps 761 mmHg 99%
    04:00 +24°C° 0.1 mm 2 mps 761 mmHg 99%
    05:00 +24°C° 0.1 mm 2 mps 762 mmHg 99%
    06:00 +25°C° 0.1 mm 2 mps 762 mmHg 99%
    07:00 +25°C° 0.1 mm 2 mps 762 mmHg 98%
    08:00 +26°C° 0.1 mm 2 mps 763 mmHg 97%
    09:00 +26°C° 0.1 mm 2 mps 763 mmHg 96%
    10:00 +27°C° 0.2 mm 2 mps 763 mmHg 91%
    11:00 +28°C° 0.2 mm 2 mps 763 mmHg 86%
    12:00 +29°C° 0.2 mm 2 mps 762 mmHg 81%
    13:00 +29°C° 0.3 mm 2 mps 762 mmHg 81%
    14:00 +30°C° 0.3 mm 2 mps 761 mmHg 80%
    15:00 +30°C° 0.3 mm 2 mps 761 mmHg 79%
    16:00 +29°C° 0.1 mm 2 mps 761 mmHg 84%
    17:00 +27°C° 0.1 mm 2 mps 761 mmHg 89%
    18:00 +26°C° 0.1 mm 2 mps 761 mmHg 95%
    19:00 +26°C° 0 mm 2 mps 762 mmHg 95%
    20:00 +25°C° 0 mm 2 mps 762 mmHg 96%
    21:00 +25°C° 0 mm 2 mps 763 mmHg 97%
    22:00 +25°C° 0 mm 2 mps 763 mmHg 97%
    23:00 +25°C° 0 mm 2 mps 763 mmHg 98%

    Mañana, 22 Noviembre, Jueves

    Tiempo Temperatura Precipitaciones Viento Presión Humedad
    00:00 +24°C° 0 mm 2 mps 762 mmHg 98%
    01:00 +24°C° 0 mm 2 mps 762 mmHg 98%
    02:00 +24°C° 0 mm 2 mps 762 mmHg 99%
    03:00 +24°C° 0 mm 2 mps 761 mmHg 99%
    04:00 +24°C° 0.1 mm 2 mps 761 mmHg 99%
    05:00 +24°C° 0.1 mm 2 mps 761 mmHg 99%
    06:00 +24°C° 0.1 mm 2 mps 761 mmHg 99%
    07:00 +25°C° 0 mm 2 mps 762 mmHg 95%
    08:00 +26°C° 0 mm 2 mps 762 mmHg 91%
    09:00 +27°C° 0 mm 2 mps 763 mmHg 87%
    10:00 +29°C° 0.1 mm 2 mps 762 mmHg 78%
    11:00 +31°C° 0.1 mm 2 mps 762 mmHg 70%
    12:00 +32°C° 0.1 mm 2 mps 762 mmHg 61%
    13:00 +32°C° 0.4 mm 2 mps 761 mmHg 65%
    14:00 +31°C° 0.4 mm 2 mps 760 mmHg 69%
    15:00 +31°C° 0.4 mm 3 mps 760 mmHg 73%
    16:00 +29°C° 0.3 mm 2 mps 760 mmHg 80%
    17:00 +27°C° 0.3 mm 2 mps 760 mmHg 86%
    18:00 +26°C° 0.3 mm 2 mps 761 mmHg 93%
    19:00 +25°C° 0 mm 2 mps 761 mmHg 94%
    20:00 +25°C° 0 mm 2 mps 762 mmHg 96%
    21:00 +24°C° 0 mm 2 mps 762 mmHg 97%
    22:00 +24°C° 0 mm 1 mps 762 mmHg 98%
    23:00 +24°C° 0 mm 1 mps 762 mmHg 98%

    Pasado mañana, 23 Noviembre, Viernes

    Tiempo Temperatura Precipitaciones Viento Presión Humedad
    00:00 +24°C° 0 mm 1 mps 761 mmHg 98%
    01:00 +24°C° 0.1 mm 1 mps 761 mmHg 99%
    02:00 +24°C° 0.1 mm 1 mps 760 mmHg 99%
    03:00 +24°C° 0.1 mm 1 mps 760 mmHg 99%
    04:00 +24°C° 0.1 mm 1 mps 760 mmHg 99%
    05:00 +23°C° 0.1 mm 1 mps 760 mmHg 99%
    06:00 +23°C° 0.1 mm 1 mps 760 mmHg 99%
    07:00 +25°C° 0 mm 1 mps 761 mmHg 94%
    08:00 +26°C° 0 mm 1 mps 761 mmHg 90%
    09:00 +28°C° 0 mm 1 mps 762 mmHg 85%
    10:00 +29°C° 0.1 mm 2 mps 761 mmHg 78%
    11:00 +30°C° 0.1 mm 2 mps 761 mmHg 71%
    12:00 +32°C° 0.1 mm 2 mps 760 mmHg 64%
    13:00 +32°C° 0.2 mm 2 mps 759 mmHg 65%
    14:00 +31°C° 0.2 mm 2 mps 758 mmHg 67%
    15:00 +31°C° 0.2 mm 2 mps 757 mmHg 69%
    16:00 +29°C° 0.1 mm 2 mps 758 mmHg 76%
    17:00 +28°C° 0.1 mm 2 mps 758 mmHg 83%
    18:00 +26°C° 0.1 mm 2 mps 758 mmHg 91%
    19:00 +26°C° 0 mm 1 mps 759 mmHg 92%
    20:00 +25°C° 0 mm 1 mps 759 mmHg 94%
    21:00 +25°C° 0 mm 1 mps 760 mmHg 95%
    22:00 +25°C° 0 mm 1 mps 759 mmHg 96%
    23:00 +24°C° 0 mm 1 mps 759 mmHg 97%

    24 Noviembre, Sábado

    Tiempo Temperatura Precipitaciones Viento Presión Humedad
    00:00 +22°C° 0 mm 0 mps 759 mmHg 97%
    01:00 +22°C° 0 mm 0 mps 759 mmHg 98%
    02:00 +22°C° 0 mm 0 mps 758 mmHg 98%
    03:00 +22°C° 0 mm 0 mps 758 mmHg 98%
    04:00 +22°C° 0 mm 0 mps 758 mmHg 98%
    05:00 +21°C° 0 mm 0 mps 758 mmHg 98%
    06:00 +21°C° 0 mm 0 mps 758 mmHg 98%
    07:00 +24°C° 0 mm 0 mps 759 mmHg 91%
    08:00 +26°C° 0 mm 0 mps 759 mmHg 83%
    09:00 +28°C° 0 mm 0 mps 760 mmHg 75%
    10:00 +31°C° 0 mm 1 mps 759 mmHg 69%
    11:00 +32°C° 0 mm 1 mps 759 mmHg 63%
    12:00 +33°C° 0 mm 1 mps 758 mmHg 56%
    13:00 +34°C° 0 mm 2 mps 758 mmHg 57%
    14:00 +34°C° 0 mm 2 mps 757 mmHg 58%
    15:00 +34°C° 0 mm 2 mps 756 mmHg 59%
    16:00 +31°C° 0 mm 2 mps 757 mmHg 68%
    17:00 +29°C° 0 mm 2 mps 757 mmHg 77%
    18:00 +27°C° 0 mm 2 mps 757 mmHg 86%
    19:00 +26°C° 0 mm 2 mps 758 mmHg 89%
    20:00 +26°C° 0 mm 2 mps 758 mmHg 92%
    21:00 +25°C° 0 mm 2 mps 759 mmHg 95%
    22:00 +25°C° 0 mm 2 mps 759 mmHg 95%
    23:00 +25°C° 0 mm 2 mps 758 mmHg 96%

    25 Noviembre, Domingo

    Tiempo Temperatura Precipitaciones Viento Presión Humedad
    00:00 +24°C° 0 mm 2 mps 758 mmHg 97%
    01:00 +24°C° 0 mm 2 mps 758 mmHg 97%
    02:00 +24°C° 0 mm 1 mps 757 mmHg 98%
    03:00 +24°C° 0 mm 1 mps 757 mmHg 98%
    04:00 +24°C° 0 mm 1 mps 757 mmHg 98%
    05:00 +24°C° 0 mm 1 mps 758 mmHg 98%
    06:00 +24°C° 0 mm 1 mps 758 mmHg 98%
    07:00 +26°C° 0 mm 2 mps 759 mmHg 91%
    08:00 +28°C° 0 mm 2 mps 759 mmHg 83%
    09:00 +30°C° 0 mm 2 mps 760 mmHg 76%
    10:00 +31°C° 0 mm 2 mps 759 mmHg 70%
    11:00 +32°C° 0 mm 2 mps 759 mmHg 63%
    12:00 +34°C° 0 mm 3 mps 758 mmHg 57%
    13:00 +34°C° 0 mm 3 mps 758 mmHg 57%
    14:00 +34°C° 0 mm 3 mps 757 mmHg 57%
    15:00 +34°C° 0 mm 2 mps 757 mmHg 57%
    16:00 +30°C° 0 mm 2 mps 757 mmHg 67%
    17:00 +28°C° 0 mm 2 mps 758 mmHg 76%
    18:00 +26°C° 0 mm 2 mps 758 mmHg 85%
    19:00 +26°C° 0 mm 2 mps 759 mmHg 89%
    20:00 +25°C° 0 mm 2 mps 759 mmHg 92%
    21:00 +25°C° 0 mm 2 mps 760 mmHg 96%
    22:00 +24°C° 0 mm 2 mps 760 mmHg 96%
    23:00 +24°C° 0 mm 2 mps 759 mmHg 97%

    26 Noviembre, Lunes

    Tiempo Temperatura Precipitaciones Viento Presión Humedad
    00:00 +24°C° 0 mm 1 mps 759 mmHg 98%
    01:00 +24°C° 0 mm 1 mps 759 mmHg 98%
    02:00 +24°C° 0 mm 1 mps 759 mmHg 98%
    03:00 +24°C° 0 mm 1 mps 759 mmHg 98%
    04:00 +24°C° 0 mm 1 mps 759 mmHg 98%
    05:00 +24°C° 0 mm 1 mps 760 mmHg 98%
    06:00 +24°C° 0 mm 1 mps 760 mmHg 98%
    07:00 +26°C° 0.1 mm 2 mps 761 mmHg 91%
    08:00 +28°C° 0.1 mm 2 mps 761 mmHg 84%
    09:00 +30°C° 0.1 mm 2 mps 762 mmHg 77%
    10:00 +30°C° 0.4 mm 2 mps 761 mmHg 74%
    11:00 +31°C° 0.4 mm 2 mps 761 mmHg 71%
    12:00 +33°C° 0.4 mm 3 mps 760 mmHg 67%
    13:00 +31°C° 1.2 mm 3 mps 759 mmHg 71%
    14:00 +31°C° 1.2 mm 3 mps 759 mmHg 75%
    15:00 +30°C° 1.2 mm 3 mps 758 mmHg 78%
    16:00 +29°C° 0.4 mm 2 mps 759 mmHg 83%
    17:00 +27°C° 0.4 mm 2 mps 759 mmHg 87%
    18:00 +26°C° 0.4 mm 2 mps 760 mmHg 92%
    19:00 +26°C° 0.1 mm 2 mps 760 mmHg 93%
    20:00 +25°C° 0.1 mm 2 mps 761 mmHg 95%
    21:00 +25°C° 0.1 mm 2 mps 761 mmHg 96%
    22:00 +25°C° 0.1 mm 2 mps 761 mmHg 97%
    23:00 +24°C° 0.1 mm 1 mps 761 mmHg 97%
    Mostrar más